www.pogodaiklimat.ru

Погода и климат >> Архив погоды >> Южная Африка >> Worcester


ПОГОДА в Worcester

  • Прогноз погоды в Worcester
  • Монитор погоды в Worcester
  • Климат города

АРХИВ ПОГОДЫ в Worcester

Время (UTC), дата Ветер
(напр.,м/с)
 
Видим.   Явления Облачность Т
(С)
Тd
(С)
f
(%)
Тe
(С)
Тes
(С)
Комфортность P
(гПа)
Po
(гПа)
Тmin
(С)
Tmax
(С)
R
(мм)
R24
(мм)
S
(см)
12 11.12 ЮВ 3 н/о н/о +29.0 +7.3 26 +28 +28 жарко 855.9 987.5 +12.6 +29.1
15 11.12 ЮВ 6 н/о н/о +27.6 +8.2 29 +27 +27 жарко 855.1 987.3 +27.6 +29.8
18 11.12 ЮВ 7 н/о н/о +20.0 +9.4 50 +21 +21 комфорт 854.3 990.3 +20.0 +29.8
21 11.12 ЮВ 4 н/о н/о +17.4 +9.8 61 +17 +17 855.0 992.4 +17.4 +29.8
00 12.12 ЮВ 4 н/о н/о +16.9 +9.6 62 +16 +16 854.1 991.6 +16.9 +29.8
03 12.12 ЮВ 1 н/о н/о +14.2 +9.6 74 +15 +15 852.4 991.1 +14.2 +29.8
06 12.12 ЮВ 3 н/о н/о +18.9 +9.2 53 +20 +20 855.6 992.3 +13.9
09 12.12 Ю 4 н/о н/о +23.3 +6.3 33 +24 +24 комфорт 856.6 991.1 +13.9 +23.3
12 12.12 В 2 н/о н/о +26.9 +4.9 24 +26 +26 жарко 856.4 989.1 +13.9 +27.2
15 12.12 Ю 10 н/о н/о +26.0 +9.1 34 +26 +26 жарко 854.7 987.7 +26.0 +28.9
18 12.12 Ю 7 н/о н/о +19.4 +9.9 54 +20 +20 853.6 989.8 +19.4 +28.9
21 12.12 ЮВ 3 н/о н/о +16.7 +9.7 63 +17 +17 853.7 991.3 +16.7 +28.9
00 13.12 ЮВ 2 н/о н/о +16.6 +9.1 61 +17 +17 852.5 990.0 +16.5 +28.9
03 13.12 ЮЗ 1 н/о н/о +15.4 +9.5 68 +16 +16 851.6 989.6 +15.3 +28.9
06 13.12 СЗ 5 н/о н/о +19.2 +7.7 47 +20 +20 853.9 990.2 +15.1
09 13.12 СЗ 10 н/о н/о +22.0 +9.3 44 +23 +23 комфорт 855.3 990.3 +15.1 +22.0
12 13.12 СЗ 10 н/о н/о +21.8 +10.1 47 +23 +23 комфорт 855.1 990.2 +15.1 +22.2
15 13.12 СЗ 10 н/о н/о +20.8 +11.0 53 +22 +22 комфорт 854.7 990.3 +20.4 +22.9
18 13.12 СЗ 7 н/о н/о +18.4 +11.3 63 +18 +18 855.0 991.9 +18.4 +22.9
21 13.12 З 4 н/о н/о +16.6 +12.6 77 +16 +16 855.9 993.8 +16.6 +22.9
00 14.12 ЮЗ 2 н/о н/о +16.4 +12.9 80 +17 +17 855.7 993.7 +16.2 +22.9
03 14.12 ЮЗ 2 н/о н/о +15.8 +13.6 87 +16 +16 856.1 994.5 +15.8 +22.9
06 14.12 В 4 н/о н/о +18.6 +11.9 65 +19 +19 858.4 995.6 +15.6
09 14.12 ЮВ 2 н/о н/о +23.2 +9.4 41 +25 +25 комфорт 860.1 995.0 +15.6 +23.3
12 14.12 ЮВ 3 н/о н/о +26.7 +7.4 29 +26 +26 жарко 860.2 993.3 +15.6 +26.8
15 14.12 ЮВ 4 н/о н/о +28.2 +5.4 23 +27 +27 жарко 859.5 991.8 +26.6 +28.6
18 14.12 ЮВ 5 н/о н/о +22.6 +7.7 38 +24 +24 комфорт 858.4 993.4 +22.6 +28.6
21 14.12 ЮВ 3 н/о н/о +17.5 +8.4 55 +18 +18 857.3 994.9 +17.5 +28.6
00 15.12 В 2 н/о н/о +15.2 +8.7 65 +15 +15 855.6 994.2 +15.2 +28.6
03 15.12 В 2 н/о н/о +13.7 +8.3 70 +13 +13 854.8 994.1 +13.7 +28.6
06 15.12 ЮВ 3 н/о н/о +18.5 +8.5 52 +19 +19 856.5 993.5 +13.4
09 15.12 Ю 2 н/о н/о +25.6 +8.8 34 +26 +26 жарко 857.6 991.0 +13.4 +25.6
12 15.12 В 2 н/о н/о +33.2 +6.9 20 +31 +31 жарко 857.8 987.5 +13.4 +33.3
15 15.12 З 5 н/о н/о +36.5 +5.2 14 +34 +34 очень
жарко
857.0 985.2 +33.2 +36.6
18 15.12 ЮВ 5 н/о н/о +28.7 +10.2 32 +29 +29 жарко 855.4 987.2 +28.7 +36.6
21 15.12 ЮВ 3 н/о н/о +22.4 +7.1 37 +23 +23 комфорт 854.3 989.0 +22.4 +36.6
00 16.12 ЮВ 3 н/о н/о +18.8 +6.7 45 +20 +20 852.0 988.3 +18.8 +36.6
03 16.12 В 2 н/о н/о +16.9 +12.0 73 +17 +17 852.1 989.4 +16.9 +36.6
06 16.12 ЮВ 4 н/о н/о +19.3 +12.4 64 +21 +21 комфорт 855.3 991.7 +16.6
09 16.12 ЮВ 4 н/о н/о +23.3 +11.5 47 +26 +26 жарко 856.5 991.0 +16.6 +23.3
12 16.12 ЮВ 5 н/о н/о +27.9 +11.3 36 +29 +29 жарко 857.7 990.0 +16.6 +27.9
15 16.12 ЮВ 7 н/о н/о +27.5 +12.9 40 +29 +29 жарко 856.7 989.1 +27.5 +29.5
18 16.12 ЮВ 6 н/о н/о +22.4 +13.0 55 +25 +25 комфорт 856.2 991.1 +22.4 +29.5
21 16.12 ЮВ 5 н/о н/о +19.4 +13.2 67 +21 +21 комфорт 856.7 993.2 +19.4 +29.5
00 17.12 ЮВ 3 н/о н/о +18.0 +12.9 72 +18 +18 855.3 992.4 +18.0 +29.5
03 17.12 ЮВ 3 н/о н/о +17.5 +13.0 75 +17 +17 854.5 991.8 +17.4 +29.5
06 17.12 ЮВ 5 н/о н/о +20.4 +13.7 65 +23 +23 комфорт 856.4 992.4 +16.9
09 17.12 Ю 6 н/о н/о +22.1 +14.1 60 +25 +25 комфорт 856.6 991.7 +16.9 +22.1
12 17.12 ЮВ 6 н/о н/о +22.7 +14.4 59 +26 +26 жарко 856.4 991.2 +16.9 +22.7
15 17.12 ЮВ 6 н/о н/о +20.2 +13.5 65 +22 +22 комфорт 855.0 991.0 +20.2 +23.4
18 17.12 ЮВ 5 н/о н/о +18.0 +12.9 72 +18 +18 855.8 993.0 +18.0 +23.4
21 17.12 ЮВ 4 н/о н/о +16.9 +12.5 75 +16 +16 856.5 994.3 +16.9 +23.4
00 18.12 ЮВ 4 н/о н/о +16.7 +12.5 76 +16 +16 855.7 993.5 +16.6 +23.4
03 18.12 ЮВ 4 н/о н/о +16.3 +11.7 74 +16 +16 856.0 994.1 +16.2 +23.4
06 18.12 ЮВ 4 н/о н/о +17.7 +10.6 63 +17 +17 858.3 995.9 +16.2
09 18.12 ЮВ 4 н/о н/о +22.7 +9.6 43 +24 +24 комфорт 860.9 996.1 +16.2 +22.7

 

Местоположение метеостанции Worcester (Южная Африка): широта -33.61 долгота 19.47 высота над уровнем моря 270 м.

В архиве по умолчанию представлена погода в Worcester за последнюю неделю. Архивные данные за месяц целиком и за предыдущие месяцы, начиная с января 2011 года, Вы можете получить, выбрав интересующий диапазон дат из раскрывающегося списка и нажав кнопку "Ввод!".

Внимание! Время в таблицах - всемирное. Для получения местного времени необходимо прибавить поправку, которая в Worcester равна 2 ч.

Смотрите также архив погоды в соседних городах и на ближайших метеорологических станциях:

Погода в Robertson (Южная Африка) (45 км)
Погода в Paarl (Южная Африка) (48 км)
Погода в Malmesbury (Южная Африка) (72 км)
Погода в Tigerhoek (Южная Африка) (72 км)
Погода в Excelsior Ceres (Южная Африка) (72 км)
Погода в Strand (Южная Африка) (82 км)
Погода в Cape Town Airport (Южная Африка) (89 км)
Погода в Cape Town Int Airport (Южная Африка) (89 км)
Погода в Hermanus (Южная Африка) (94 км)
Погода в Ysterplant (Южная Африка) (95 км)

Пояснения к столбцам:

Ветер - указаны скорость ветра в м/с - средняя за 10 мин, порывы в срок и между сроками (в фигурных скобках) и направление, откуда дует ветер: С - северный, СВ - северо-восточный, В - восточный, ЮВ - юго-восточный, Ю - южный, ЮЗ - юго-западный, З - западный, СЗ - северо-западный.
Видимость - горизонтальная дальность видимости в метрах или километрах. При видимости от 1 до 10 км при отсутствии осадков обычно наблюдается дымка, при ухудшении видимости до 1 км и менее - туман. В сухую погоду видимость может ухудшаться дымом, пылью или мглою.
Явления - указаны атмосферные явления, наблюдавшиеся в срок или в последний час перед сроком; фигурными скобками обозначены явления, наблюдавшиеся между сроками (за 1-3 часа до срока); квадратными скобками обозначены град или гололедные отложения с указанием их диаметра в мм.
Облачность - указаны через наклонную черту общая и нижняя облачность в баллах и высота нижней границы облаков в метрах; квадратными скобками обозначены формы облаков: Ci - перистые, Cs - перисто-слоистые, Cc - перисто-кучевые, Ac - высококучевые, As - высокослоистые, Sc - слоисто-кучевые, Ns - слоисто-дождевые, Cu - кучевые, Cb - кучево-дождевые. Подробнее классификацию облаков см. в Атласе облаков (PDF).
T - Температура воздуха - температура, измеренная на высоте 2 м над землей.
Td - Температура точки росы - температура, при понижении до которой содержащийся в воздухе водяной пар достигнет насыщения.
f - Относительная влажность воздуха - влажноcть воздуха, измеренная на высоте 2 м над землей.
Te - Эффективная температура - температура, которую ощущает одетый по сезону человек в тени. Характеристика душности погоды. При расчете учитывается влияние влажности воздуха и скорости ветра на теплоощущения человека.
Tes - Эффективная температура на солнце - температура, которую ощущает человек, с поправкой на солнечный нагрев. Характеристика знойности погоды. Зависит от высоты солнца над горизонтом, облачности и скорости ветра. Ночью, в пасмурную погоду, а также при ветре 12 м/с и более поправка равна нулю.
P - Атмосферное давление - приведенное к уровню моря атмосферное давление.
Po - Атмосферное давление - измеренное на уровне метеостанции атмосферное давление.
Tmin - Минимальная температура - минимум температуры воздуха на высоте 2 м над землей.
Tmax - Максимальная температура - максимум температуры воздуха на высоте 2 м над землей.
R - Количество осадков - Количество выпавших осадков за период времени, мм. При наведении курсора мыши на число - период времени, за который выпало указанное количество осадков.
R24 - Количество осадков - Количество выпавших осадков за 24 часа, мм.
S - Снежный покров - Высота снежного покрова, см. При наведении курсора мыши на число - состояние снежного покрова и степень покрытия местности в баллах.